Regional Weather Roundup
Issued by NWS Charleston, SC

Current Version | Previous Version | Graphics & Text | Print | Product List | Glossary On
Versions: 1 2 3 4 5 6 7 8 9 10 11 12 13 14 15 16 17 18 19 20 21 22 23 24 25 26 27 28 29 30 31 32 33 34 35 36 37 38 39 40 41 42 43 44 45 46 47 48 49 50
000
ASUS42 KCHS 231412
RWRCHS

REGIONAL WEATHER ROUNDUP
NATIONAL WEATHER SERVICE CHARLESTON SC
1000 AM EDT SUN JUL 23 2017

NOTE: "FAIR" INDICATES FEW OR NO CLOUDS BELOW 12,000 FEET WITH NO
SIGNIFICANT WEATHER AND/OR OBSTRUCTIONS TO VISIBILITY.

NOT ALL STATIONS ARE QUALITY CONTROLLED. USE DATA WITH CAUTION...
ESPECIALLY DEWPOINT OBSERVATIONS.

SCZ027-030-031-034>040-042>050-231500-
...SOUTHEAST SOUTH CAROLINA...

CITY           SKY/WX    TMP DP  RH WIND       PRES   REMARKS
N CHARLESTON   MOSUNNY   84  75  74 SW12      29.97S HX  92
WATERFRONT PRK   N/A     83  77  81 SW6       29.96S HX  92
JOHNS ISLAND   FAIR      86  77  74 SW10      29.98S HX  97
PINOPOLIS        N/A     81  75  83 SW7       29.90R
MONCKS CORNER  FAIR      82  75  78 W3        29.96S
SUMMERVILLE    FAIR      82  75  78 SW6       29.98S
BEAUFORT MCAS  SUNNY     84  78  82 SW8       29.98F HX  95
BEAUFORT ARPT  FAIR      82  75  78 SW8       29.98F
HILTON HEAD IS MOSUNNY   82  77  83 SW12      30.00S HX  91
WALTERBORO     SUNNY     84  75  74 SW7       29.98S HX  92
ALLENDALE      NOT AVBL

...SOUTHERN MIDLANDS AND PEE DEE...

CITY           SKY/WX    TMP DP  RH WIND       PRES   REMARKS
GEORGETOWN     PTSUNNY   82  79  89 SW7       29.97F HX  93
KINGSTREE      FAIR      84  75  74 SW6       29.94F HX  92
ORANGEBURG     SUNNY     85  75  72 W7        29.96S HX  93
BARNWELL       FAIR      88  79  74 VRB6G12   29.97S HX 102
AIKEN          FAIR      82  73  74 SW7       29.99F
MANNING        FAIR      84  77  79 W5        29.95F HX  94
COLUMBIA       MOSUNNY   87  75  67 SW10      29.93F HX  96
SUMTER         SUNNY     85  75  70 SW13      29.91F HX  94
FLORENCE       SUNNY     85  76  74 W9        29.93F HX  94
MYRTLE BEACH   MOSUNNY   86  75  70 SW10      29.96S HX  95
N MYRTLE BEACH SUNNY     84  77  79 S14       29.94F HX  94

$$

GAZ063-065-086>088-099>101-113>116-118-119-134>141-150-231500-
...SOUTHEAST GEORGIA...

CITY           SKY/WX    TMP DP  RH WIND       PRES   REMARKS
SAVANNAH ARPT  PTSUNNY   84  76  76 W9        30.00S HX  93
HUNTER AAF     PTSUNNY   84  77  79 SW7       29.97F HX  94
FORT STEWART   PTSUNNY   84  75  74 SW10      29.98F HX  92
STATESBORO     MOSUNNY   85  77  78 SW8       29.98F HX  96
SYLVANIA       SUNNY     84  79  83 W5        29.99F HX  96
CLAXTON        FAIR      84  77  80 CALM      29.99F HX  94

...CSRA...CENTRAL AND FAR SOUTHEAST GEORGIA...

CITY           SKY/WX    TMP DP  RH WIND       PRES   REMARKS
THOMSON        SUNNY     85  74  71 NW7       30.01F HX  92
AUGUSTA-BUSH   SUNNY     87  76  69 W9        29.95F HX  97
AUGUSTA-DANIEL SUNNY     86  72  62 VRB5      29.97F HX  92
SWAINSBORO     FAIR      82  77  83 NW6       30.00S HX  91
VIDALIA        SUNNY     84  77  79 CALM      30.00F HX  94
EASTMAN        FAIR      84  68  58 W7        30.02F
HAZLEHURST     PTSUNNY   83  80  90 SW7       30.00S HX  96
ALMA           CLOUDY    82  76  81 W8        30.02S
WAYCROSS       PTSUNNY   85  82  90 W6        30.02F HX 103
JESUP          NOT AVBL
BAXLEY         CLOUDY    82  82 100 SW7       30.01F HX  97
BRUNSWICK      PTSUNNY   81  77  89 SW9       30.03S
SAINT SIMONS   CLOUDY    82  77  84 SW7       30.02F HX  90

$$

SCZ027-028-034-036>038-045-046-048>050-GAZ119-141-231500-
...LAKE AND SUPPLEMENTAL COASTAL OBSERVATIONS...

STATION/POSITION TIME  TEMP    WIND        PRES    WAVE   SWELL
                       AIR SEA DIR/SP/G            HT/PER HT/PER/DIR
                 (UTC) (F)     (DEG/KT/KT) (MB)    (FT/S) (FT/S/D)
WINYAH BAY       1245   81     230/  8     1014.0
LAKE MURRAY      NOT AVBL
ACE BASIN NERRS  1245   82     210/  1     1015.0
FORT PULASKI     1348   80 86  240/  5/  7 1016.0F
SAPELO ISLAND    1300   79     250/  9     1017.0

$$

ANZ835-935-AMZ111-154-330-350-352-354-370-450-454-472-231500-
...C-MAN AND BUOY OBSERVATIONS...

STATION/POSITION TIME  TEMP    WIND        PRES    WAVE   SWELL
                       AIR SEA DIR/SP/G            HT/PER HT/PER/DIR
                 (UTC) (F)     (DEG/KT/KT) (MB)    (FT/S) (FT/S/D)
BUOY 41004       1350   82 83  240/ 17/ 21 1015.0S   4/ 9   2/120/ 9
BUOY 41008       1250   79 80  250/ 12/ 14 1016.0    3/ 9   2/ 80/ 9
FOLLY BEACH CMAN 1300   82     230/ 11/ 16 1015.7S
CAPERS NEARSHORE 1308   81 83  240/ 14/ 19 1014.6S
FRIPP NEARSHORE  1308   81 84  230/ 14/ 17 1015.4R


STATION/POSITION TIME  TEMP    WIND        PRES    WAVE   SWELL
                       AIR SEA DIR/SP/G            HT/PER HT/PER/DIR
                 (UTC) (F)     (DEG/KT/KT) (MB)    (FT/S) (FT/S/D)
5E ST. MARYS GA  1330      81                N/A     2/ 9
FRYING PAN BUOY  1350   83 84  230/ 17/ 21 1014.3F   4/ 6   2/140/10
BUOY 41025       1350   84 85  230/ 25/ 29 1011.8F   6/ 7   2/200/ 9
CAPE LOOKOUT NC  1300   83     220/ 12/ 18 1013.1R
BUOY 41002       1350   83 83  230/ 16/ 19 1017.0S   5/ 5   2/100/10
BUOY 41010       1350   82 85  220/ 14/ 16 1017.9R   3/ 9   2/110/ 9
ST AUGUSTINE FL  1400   83 76  210/ 12/ 13 1017.8S


$$



USA.gov is the U.S. government's official web portal to all federal, state and local government web resources and services.